Rbgn^[z[y[W
メイン
   新天体発見情報
     Comet P/2020 U2 (PANSTARRS)
投稿するにはまず登録を

フラット表示 前のトピック | 次のトピック
投稿者 スレッド
佐藤裕久
投稿日時: 2020-11-2 22:54
モデレータ
登録日: 2005-6-12
居住地: 日本
投稿: 2590
オンライン
Comet P/2020 U2 (PANSTARRS)

R. Weryk (ハワイ大学, 天文学研究所)の通報によると、10月20日UT、HaleakalaにあるPan-
STARRS1 1.8-m Ritchey-Chretien反射望遠鏡で得た4枚の60秒w-バンド画像から彗星を発見した。
この彗星の拡散した頭部は、1".1のシーイングで2".0 (半値全幅:FWHM)に見えた。また、
点拡散関数 (PSF)は非対称に見え、南西(p.a. 220°,しかし明確な尾はない)。に向かって短い
尾を示唆している。
小惑星センターのPCCP webpageには、佐藤英貴氏(東京都文京区,10月22.4日, 60秒露出16枚の
タック, 0.43-m f/6.8 アストログラフ, Mayhill近郊, NM, 遠隔操作: 強い集光の10" のコマが
見えるが尾はない。5".7の円形範囲で測定した光度は20.6等であった。5".7の円形範囲で測定した
光度は20.0等であった)と投稿した。

彗星機能の報告は次の通り:

OC   Date        Reporter           Coma    Tail    PA          Exposures
H06  2020-10-22  H. Sato            10"                          16x60s
F51  2020-10-23  R. Weryk           0".5                          3x45s
F51  2020-10-25  Y. Ramanjooloo     1".65                         3x60s

発見位置は次のとおり、

     2020 UT             R.A. (2000) Decl.       Mag.
     Oct. 20.38941    2 41 12.84   +26 27 57.4   21.7
          20.40141    2 41 12.43   +26 28 00.7   21.7
          20.41326    2 41 12.05   +26 28 03.4   21.2
          20.42520    2 41 11.65   +26 28 06.8   21.7

MPCの楕円軌道要素、位置推算表は次のとおり、

Orbital elements:
    P/2020 U2 (PANSTARRS)                                                       
Epoch 2020 Dec. 17.0 TT = JDT 2459200.5                                         
T 2020 Dec. 25.70177 TT                                 Rudenko                 
q   1.8489535            (2000.0)            P               Q                  
n   0.13424048     Peri.   84.64202     +0.38010591     -0.92435841             
a   3.7775805      Node   342.90394     +0.79815212     +0.34575716             
e   0.5105456      Incl.    6.42156     +0.46741061     +0.16128706             
P   7.34                                                                        
From 43 observations 2020 Sept. 17-Oct. 26, mean residual 0".3.                 
                                                                                
    P/2020 U2 (PANSTARRS)                                                       
Epoch 2028 Apr. 19.0 TT = JDT 2461880.5                                         
T 2028 May 2.89441 TT                                   Rudenko                 
q   1.8476794            (2000.0)            P               Q                  
n   0.13427526     Peri.   84.83395     +0.37922162     -0.92471270             
a   3.7769281      Node   342.76596     +0.79848605     +0.34512712             
e   0.5107984      Incl.    6.41974     +0.46755855     +0.16060418             
P   7.34                                                                        
From 43 observations 2020 Sept. 17-Oct. 26, mean residual 0".3.                 
                                                                                
    P/2020 U2 (PANSTARRS)                                                       
Epoch 2020 Dec. 17.0 TT = JDT 2459200.5                                         
T 2020 Dec. 25.70177 TT                                 Rudenko                 
q   1.8489535            (2000.0)            P               Q                  
n   0.13424048     Peri.   84.64202     +0.38010591     -0.92435841             
a   3.7775805      Node   342.90394     +0.79815212     +0.34575716             
e   0.5105456      Incl.    6.42156     +0.46741061     +0.16128706             
P   7.34                                                                        
From 43 observations 2020 Sept. 17-Oct. 26, mean residual 0".3.                 
                                                                                
Ephemeris:
Date    TT    R. A. (2000) Decl.     Delta      r    Elong.  Phase   m1
2020 09 27    02 44 55.1 +24 03 47   1.1589  2.0142   137.4    19.7  21.4
...
2020 10 12    02 44 24.8 +25 45 56   1.0332  1.9660   150.9    14.3  21.0
...
2020 10 20    02 41 23.9 +26 26 17   0.9831  1.9432   158.2    11.0  20.8
...
2020 10 26    02 38 08.0 +26 48 29   0.9541  1.9276   163.3     8.5  20.7
2020 10 27    02 37 31.5 +26 51 29   0.9500  1.9251   164.1     8.1  20.7
2020 10 28    02 36 54.2 +26 54 15   0.9461  1.9226   164.8     7.8  20.7
...
2020 11 03    02 32 56.4 +27 06 35   0.9274  1.9087   167.9     6.2  20.6
...
2020 11 11    02 27 30.1 +27 11 43   0.9146  1.8923   166.9     6.8  20.6
...
2020 11 26    02 19 43.5 +26 54 55   0.9279  1.8683   154.7    13.1  20.6

(MPEC 2020-U252、CBET 4878)

フラット表示 前のトピック | 次のトピック

題名 投稿者 日時
 » Comet P/2020 U2 (PANSTARRS) 佐藤裕久 2020-11-2 22:54

投稿するにはまず登録を
 
© 1999 Tsutomu Seki.